Regional Weather Roundup
Issued by NWS Charleston, SC

Current Version | Previous Version | Text Only | Print | Product List | Glossary Off
Versions: 1 2 3 4 5 6 7 8 9 10 11 12 13 14 15 16 17 18 19 20 21 22 23 24 25 26 27 28 29 30 31 32 33 34 35 36 37 38 39 40 41 42 43 44 45 46 47 48 49 50

000
ASUS42 KCHS 172227
RWRCHS

REGIONAL WEATHER ROUNDUP
NATIONAL WEATHER SERVICE CHARLESTON SC
500 PM EST TUE JAN 17 2017

NOTE: "FAIR" INDICATES FEW OR NO CLOUDS BELOW 12,000 FEET WITH NO
SIGNIFICANT WEATHER AND/OR OBSTRUCTIONS TO VISIBILITY.

NOT ALL STATIONS ARE QUALITY CONTROLLED. USE DATA WITH CAUTION...
ESPECIALLY DEWPOINT OBSERVATIONS.

SCZ027-030-031-034>040-042>050-172300-
...SOUTHEAST SOUTH CAROLINA...

CITY           SKY/WX    TMP DP  RH WIND       PRES   REMARKS
N CHARLESTON   MOCLDY    71  56  58 SW7       30.17S
WATERFRONT PRK   N/A     68  61  78 S5        30.16S
MOUNT PLEASANT LGT RAIN  70  61  73 S8        30.18R
JOHNS ISLAND   FAIR      63  61  94 S7        30.19R
PINOPOLIS        N/A     63  63 100 CALM      30.08S
MONCKS CORNER  FAIR      68  55  64 SW3       30.17S
SUMMERVILLE    FAIR      72  59  64 CALM      30.18S
BEAUFORT MCAS  MOCLDY    70  61  73 S5        30.19R
BEAUFORT ARPT  FAIR      68  61  77 S5        30.19R
HILTON HEAD IS MOCLDY    66  61  82 S6        30.20R
WALTERBORO     PTCLDY    72  59  64 SW3       30.18S
ALLENDALE      FAIR      73  55  53 CALM      30.15S

...SOUTHERN MIDLANDS AND PEE DEE...

CITY           SKY/WX    TMP DP  RH WIND       PRES   REMARKS
GEORGETOWN     FAIR      61  57  88 CALM      30.18S
KINGSTREE      FAIR      66  55  68 SE3       30.16F
ORANGEBURG     CLOUDY    71  56  58 S8        30.15S
BARNWELL       FAIR      73  57  56 SW5       30.16S
AIKEN          FAIR      70  54  56 S6        30.17F
MANNING        FAIR      63  59  88 S3        30.16F
COLUMBIA       CLOUDY    74  54  49 SW8       30.13S
SUMTER         PTCLDY    69  58  65 S7        30.12F
FLORENCE       MOCLDY    67  58  72 SW3       30.16S
MYRTLE BEACH   CLEAR     64  55  72 S9        30.19S
N MYRTLE BEACH MOCLDY    63  57  81 S3        30.17R

$$

GAZ063-065-086>088-099>101-113>116-118-119-134>141-150-172300-
...SOUTHEAST GEORGIA...

CITY           SKY/WX    TMP DP  RH WIND       PRES   REMARKS
SAVANNAH ARPT  MOCLDY    74  56  53 SW6       30.18S
HUNTER AAF     CLEAR     72  60  65 SE5       30.16S
FORT STEWART   PTCLDY    75  58  55 CALM      30.17R
STATESBORO     PTCLDY    74  61  63 S3        30.17F
SYLVANIA       CLEAR    N/A N/A N/A SW6       30.18S
CLAXTON        FAIR      73  67  82 CALM      30.18S

...CSRA...CENTRAL AND FAR SOUTHEAST GEORGIA...

CITY           SKY/WX    TMP DP  RH WIND       PRES   REMARKS
THOMSON        PTCLDY    75  58  55 SW7       30.19R
AUGUSTA-BUSH   PTCLDY    77  54  44 SW10G17   30.13F
AUGUSTA-DANIEL PTCLDY    75  52  44 SW10      30.14F
SWAINSBORO     FAIR      73  55  53 CALM      30.17S
VIDALIA        PTCLDY    75  61  60 SW8       30.17S
EASTMAN        FAIR      77  44  30 SW5       30.20R
HAZLEHURST     FAIR      76  60  57 SW7       30.17S
ALMA           MOCLDY    76  58  53 SW3       30.18R
WAYCROSS       PTCLDY    79  61  54 SW5       30.19R
JESUP          MOCLDY    73  59  60 CALM      30.19S
BAXLEY         FAIR      75  61  60 CALM      30.18S
BRUNSWICK      CLOUDY    72  64  78 SE6       30.20R
SAINT SIMONS   CLOUDY    64  59  83 SE8       30.19S

$$

SCZ027-028-034-036>038-045-046-048>050-GAZ119-141-172300-
...LAKE AND SUPPLEMENTAL COASTAL OBSERVATIONS...

STATION/POSITION TIME  TEMP    WIND        PRES    WAVE   SWELL
                       AIR SEA DIR/SP/G            HT/PER HT/PER/DIR
                 (UTC) (F)     (DEG/KT/KT) (MB)    (FT/S) (FT/S/D)
WINYAH BAY       2130   62     150/  4     1022.0S
LAKE MURRAY      2150   69     230/  8/ 10 1019.6F
ACE BASIN NERRS  2145   69        CALM     1022.0S
FORT PULASKI     2200   66 56  190/  2/  3 1022.7
SAPELO ISLAND    2200   68     130/  4     1022.0

$$

ANZ835-935-AMZ111-154-330-350-352-354-370-450-454-472-172300-
...C-MAN AND BUOY OBSERVATIONS...

STATION/POSITION TIME  TEMP    WIND        PRES    WAVE   SWELL
                       AIR SEA DIR/SP/G            HT/PER HT/PER/DIR
                 (UTC) (F)     (DEG/KT/KT) (MB)    (FT/S) (FT/S/D)
BUOY 41004       2150   70 71  230/  8/  8 1022.1S   2/ 8   2/130/ 8
BUOY 41008       2150   62 61  120/  6/  6 1022.4F   2/10   2/ 80/10
FOLLY BEACH CMAN 2200   59     220/  4/  5 1023.0R
CAPERS NEARSHORE 2208   58 55  200/  6/  8 1022.0R
FRIPP NEARSHORE  2208   60 57  150/  6/  6 1022.3R


STATION/POSITION TIME  TEMP    WIND        PRES    WAVE   SWELL
                       AIR SEA DIR/SP/G            HT/PER HT/PER/DIR
                 (UTC) (F)     (DEG/KT/KT) (MB)    (FT/S) (FT/S/D)
5E ST. MARYS GA  2200      62                N/A     2/10
FRYING PAN BUOY  2210   70 72  220/ 10/ 12 1022.3
BUOY 41025       2150   70 73  230/ 16/ 17 1020.8F   2/ 9   2/110/ 9
CAPE LOOKOUT NC  2200   63     220/  8/  9 1021.2R
BUOY 41002       2150   72 72  220/ 10/ 12 1023.8S   3/ 8   3/100/ 8
BUOY 41010       NOT AVBL
ST AUGUSTINE FL  2200   67 66  170/  6/  6 1023.3F


$$



USA.gov is the U.S. government's official web portal to all federal, state and local government web resources and services.